Change the Weather History Date:

Tuesday, January 8, 2013

  Actual Average Record
Temperature  
Mean Temperature 42 °F -  
Max Temperature 53 °F 52 °F 68 °F (1963)
Min Temperature 32 °F 35 °F 22 °F (1937)
Degree Days  
Heating Degree Days 22    
Moisture  
Dew Point 36 °F    
Average Humidity 81    
Maximum Humidity 93    
Minimum Humidity 67    
Precipitation  
Precipitation 0.00 in - - ()
Sea Level Pressure  
Sea Level Pressure 30.22 in    
Wind  
Wind Speed 2 mph (SSE)    
Max Wind Speed 6 mph    
Max Gust Speed -    
Visibility 5 miles    
Events      
Averages and records for this station are not official NWS values.
T = Trace of Precipitation, MM = Missing Value Source: NWS Daily Summary

Daily Weather History Graph

Daily Weather History Graph

Search for Another Location

Airport or City:

Trip Planner

Search our weather history database for the weather conditions in past years. The results will help you decide how hot, cold, wet, or windy it might be!

Date:

Astronomy

Jan. 08, 2013 Rise Set
Actual Time 7:09 AM PST 4:59 PM PST
Civil Twilight 6:41 AM PST 5:28 PM PST
Nautical Twilight 6:09 AM PST 6:00 PM PST
Astronomical Twilight 5:38 AM PST 6:31 PM PST
Moon 3:48 AM PST (1/8) 2:06 PM PST (1/8)
Length of Visible Light 10h 47m
Length of Day
9h 50m
Waning Crescent, 13% of the Moon is Illuminated
Jan 8
Waning Crescent
Jan 11
New
Jan 18
First Quarter
Jan 26
Full
Feb 3
Last Quarter

Hourly Weather History & Observations

Time (PST) Temp. Windchill Dew Point Humidity Pressure Visibility Wind Dir Wind Speed Gust Speed Precip Events Conditions
12:15 AM 35.6 °F 32.8 °F 33.8 °F 93% 30.22 in 3.0 mi North 3.5 mph - N/A   Clear
12:35 AM 37.4 °F - 33.8 °F 87% 30.20 in 2.0 mi Calm Calm - N/A   Clear
12:55 AM 35.6 °F 32.8 °F 32.0 °F 87% 30.22 in 3.0 mi North 3.5 mph - N/A   Clear
1:15 AM 35.6 °F - 33.8 °F 93% 30.21 in 2.5 mi Calm Calm - N/A   Clear
1:35 AM 35.6 °F 32.8 °F 33.8 °F 93% 30.22 in 2.0 mi NNE 3.5 mph - N/A   Clear
1:55 AM 35.6 °F 32.8 °F 30.2 °F 81% 30.22 in 2.5 mi ENE 3.5 mph - N/A   Clear
2:15 AM 35.6 °F 31.7 °F 33.8 °F 93% 30.22 in 2.0 mi NE 4.6 mph - N/A   Clear
2:35 AM 35.6 °F - 33.8 °F 93% 30.23 in 1.8 mi Calm Calm - N/A   Clear
2:55 AM 35.6 °F 32.8 °F 32.0 °F 87% 30.23 in 1.8 mi West 3.5 mph - N/A   Clear
3:15 AM 35.6 °F - 32.0 °F 87% 30.22 in 2.0 mi Calm Calm - N/A   Clear
3:35 AM 35.6 °F - 30.2 °F 81% 30.22 in 1.2 mi Calm Calm - N/A   Clear
3:55 AM 33.8 °F - 30.2 °F 87% 30.22 in 0.2 mi Calm Calm - N/A   Unknown
4:15 AM 33.8 °F 30.8 °F 30.2 °F 87% 30.21 in 0.2 mi East 3.5 mph - N/A   Mostly Cloudy
4:35 AM 33.8 °F - 30.2 °F 87% 30.21 in 1.0 mi Calm Calm - N/A   Mostly Cloudy
4:55 AM 33.8 °F - 30.2 °F 87% 30.22 in 2.0 mi Calm Calm - N/A   Scattered Clouds
5:15 AM 33.8 °F - 30.2 °F 87% 30.23 in 0.2 mi Calm Calm - N/A   Overcast
5:35 AM 33.8 °F - 30.2 °F 87% 30.23 in 0.2 mi Calm Calm - N/A   Overcast
5:55 AM 33.8 °F - 28.4 °F 81% 30.23 in 0.2 mi Calm Calm - N/A   Overcast
6:15 AM 33.8 °F - 30.2 °F 87% 30.23 in 0.2 mi Calm Calm - N/A   Overcast
6:35 AM 33.8 °F 30.8 °F 30.2 °F 87% 30.23 in 0.2 mi ESE 3.5 mph - N/A   Overcast
6:55 AM 32.0 °F 28.7 °F 28.4 °F 87% 30.23 in 0.2 mi NE 3.5 mph - N/A   Overcast
7:15 AM 32.0 °F - 28.4 °F 87% 30.24 in 0.2 mi Calm Calm - N/A   Overcast
7:35 AM 32.0 °F 28.7 °F 28.4 °F 87% 30.24 in 0.2 mi East 3.5 mph - N/A   Mostly Cloudy
7:55 AM 33.8 °F - 30.2 °F 87% 30.24 in 0.5 mi Calm Calm - N/A   Unknown
8:15 AM 33.8 °F - 32.0 °F 93% 30.24 in 2.5 mi Calm Calm - N/A   Clear
8:35 AM 35.6 °F - 33.8 °F 93% 30.25 in 1.5 mi Calm Calm - N/A   Clear
8:55 AM 37.4 °F - 35.6 °F 93% 30.26 in 3.0 mi Calm Calm - N/A   Clear
9:15 AM 39.2 °F 35.0 °F 37.4 °F 93% 30.27 in 5.0 mi SSE 5.8 mph - N/A   Clear
9:55 AM 42.8 °F 41.1 °F 39.2 °F 87% 30.28 in 5.0 mi SSE 3.5 mph - N/A   Clear
10:15 AM 44.6 °F - 39.2 °F 81% 30.28 in 7.0 mi Calm Calm - N/A   Clear
10:35 AM 46.4 °F 45.2 °F 39.2 °F 76% 30.27 in 8.0 mi ESE 3.5 mph - N/A   Clear
10:55 AM 46.4 °F - 39.2 °F 76% 30.27 in 8.0 mi Calm Calm - N/A   Clear
11:15 AM 48.2 °F - 41.0 °F 76% 30.25 in 8.0 mi Calm Calm - N/A   Clear
11:55 AM 50.0 °F - 42.8 °F 76% 30.23 in 8.0 mi West 3.5 mph - N/A   Clear
12:15 PM 50.0 °F - 41.0 °F 71% 30.22 in 8.0 mi Calm Calm - N/A   Clear
12:35 PM 51.8 °F - 41.0 °F 67% 30.22 in 9.0 mi Calm Calm - N/A   Clear
12:55 PM 51.8 °F - 42.8 °F 71% 30.21 in 9.0 mi Calm Calm - N/A   Clear
1:15 PM 53.6 °F - 42.8 °F 67% 30.20 in 9.0 mi Calm Calm - N/A   Clear
1:35 PM 53.6 °F - 42.8 °F 67% 30.20 in 10.0 mi West 3.5 mph - N/A   Clear
1:55 PM 53.6 °F - 42.8 °F 67% 30.20 in 10.0 mi SSW 3.5 mph - N/A   Clear
2:15 PM 53.6 °F - 42.8 °F 67% 30.20 in 10.0 mi Calm Calm - N/A   Clear
2:35 PM 53.6 °F - 42.8 °F 67% 30.20 in 10.0 mi South 3.5 mph - N/A   Clear
2:55 PM 53.6 °F - 42.8 °F 67% 30.21 in 10.0 mi SSW 4.6 mph - N/A   Clear
3:15 PM 53.6 °F - 42.8 °F 67% 30.21 in 10.0 mi SW 4.6 mph - N/A   Clear
3:35 PM 53.6 °F - 42.8 °F 67% 30.20 in 10.0 mi SSW 3.5 mph - N/A   Clear
3:55 PM 53.6 °F - 42.8 °F 67% 30.21 in 10.0 mi SSW 4.6 mph - N/A   Clear
4:15 PM 53.6 °F - 42.8 °F 67% 30.20 in 10.0 mi SW 4.6 mph - N/A   Clear
4:35 PM 51.8 °F - 42.8 °F 71% 30.21 in 9.0 mi SSW 5.8 mph - N/A   Clear
4:55 PM 50.0 °F - 41.0 °F 71% 30.20 in 9.0 mi SW 3.5 mph - N/A   Clear
5:15 PM 48.2 °F - 39.2 °F 71% 30.19 in 9.0 mi SSW 3.5 mph - N/A   Clear
5:55 PM 46.4 °F 45.2 °F 41.0 °F 81% 30.20 in 7.0 mi SSW 3.5 mph - N/A   Clear
6:15 PM 46.4 °F 45.2 °F 39.2 °F 76% 30.20 in 7.0 mi South 3.5 mph - N/A   Clear
6:35 PM 46.4 °F 45.2 °F 39.2 °F 76% 30.20 in 7.0 mi South 3.5 mph - N/A   Clear
6:55 PM 46.4 °F 45.2 °F 39.2 °F 76% 30.20 in 7.0 mi South 3.5 mph - N/A   Clear
7:15 PM 44.6 °F - 39.2 °F 81% 30.19 in 6.0 mi Calm Calm - N/A   Clear
7:35 PM 44.6 °F - 39.2 °F 81% 30.20 in 5.0 mi Calm Calm - N/A   Clear
7:55 PM 42.8 °F - 37.4 °F 81% 30.20 in 5.0 mi Calm Calm - N/A   Clear
8:15 PM 42.8 °F - 37.4 °F 81% 30.20 in 4.0 mi Calm Calm - N/A   Clear
8:35 PM 42.8 °F - 37.4 °F 81% 30.21 in 5.0 mi Calm Calm - N/A   Clear
9:15 PM 41.0 °F 37.1 °F 37.4 °F 87% 30.20 in 4.0 mi ENE 5.8 mph - N/A   Clear
9:55 PM 41.0 °F 38.0 °F 37.4 °F 87% 30.20 in 3.0 mi East 4.6 mph - N/A   Clear
10:15 PM 39.2 °F - 35.6 °F 87% 30.20 in 3.0 mi Calm Calm - N/A   Clear
10:35 PM 41.0 °F - 37.4 °F 87% 30.21 in 3.0 mi Calm Calm - N/A   Clear
10:55 PM 41.0 °F - 37.4 °F 87% 30.20 in 2.5 mi Calm Calm - N/A   Clear
11:15 PM 39.2 °F 37.0 °F 35.6 °F 87% 30.20 in 2.0 mi East 3.5 mph - N/A   Clear
11:35 PM 39.2 °F 35.9 °F 35.6 °F 87% 30.20 in 2.0 mi East 4.6 mph - N/A   Clear
11:55 PM 39.2 °F 37.0 °F 35.6 °F 87% 30.20 in 2.0 mi East 3.5 mph - N/A   Clear